When you browse on this site, cookies collect data to enhance your experience and personalize the content and advertising you see.
Visit our Privacy Policy to learn more. By continuing to use the site, you agree to this use of cookies and data.
  • în România
  • Lista ţărilor
  • Pe 7 zile
  • Temperatura apei
  • Hartă satelitară
  • Meteo pe hartă
  • Widget-uri
  • user-avatar
    Intrare

    Meteo pe oră la Pontypridd

    Astăzi, 10 Decembrie, Luni

    Timp Temperatura Precipitaţii Vânt Presiune Umiditate
    00:00 +5°C° 0 mm 6 m/s 758 mmHg 85%
    01:00 +4°C° 0 mm 6 m/s 758 mmHg 85%
    02:00 +4°C° 0 mm 6 m/s 758 mmHg 86%
    03:00 +5°C° 0 mm 5 m/s 759 mmHg 87%
    04:00 +5°C° 0 mm 5 m/s 759 mmHg 87%
    05:00 +5°C° 0 mm 5 m/s 759 mmHg 88%
    06:00 +5°C° 0 mm 5 m/s 760 mmHg 88%
    07:00 +5°C° 0 mm 4 m/s 760 mmHg 88%
    08:00 +4°C° 0 mm 4 m/s 760 mmHg 88%
    09:00 +4°C° 0 mm 4 m/s 760 mmHg 88%
    10:00 +5°C° 0 mm 4 m/s 760 mmHg 84%
    11:00 +6°C° 0 mm 4 m/s 761 mmHg 80%
    12:00 +8°C° 0 mm 4 m/s 761 mmHg 76%
    13:00 +8°C° 0 mm 3 m/s 761 mmHg 78%
    14:00 +8°C° 0 mm 3 m/s 760 mmHg 80%
    15:00 +8°C° 0 mm 2 m/s 760 mmHg 82%
    16:00 +7°C° 0 mm 2 m/s 760 mmHg 83%
    17:00 +7°C° 0 mm 2 m/s 760 mmHg 85%
    18:00 +8°C° 0 mm 1 m/s 760 mmHg 86%
    19:00 +7°C° 0 mm 2 m/s 760 mmHg 87%
    20:00 +7°C° 0 mm 2 m/s 760 mmHg 88%
    21:00 +7°C° 0 mm 2 m/s 760 mmHg 89%
    22:00 +7°C° 0 mm 2 m/s 759 mmHg 90%
    23:00 +7°C° 0 mm 3 m/s 759 mmHg 91%

    Mâine, 11 Decembrie, Marţi

    Timp Temperatura Precipitaţii Vânt Presiune Umiditate
    00:00 +7°C° 0 mm 3 m/s 759 mmHg 92%
    01:00 +7°C° 0 mm 3 m/s 759 mmHg 93%
    02:00 +8°C° 0 mm 3 m/s 758 mmHg 94%
    03:00 +8°C° 0 mm 3 m/s 758 mmHg 95%
    04:00 +8°C° 0 mm 3 m/s 757 mmHg 95%
    05:00 +8°C° 0 mm 3 m/s 757 mmHg 96%
    06:00 +8°C° 0 mm 3 m/s 757 mmHg 96%
    07:00 +8°C° 0 mm 3 m/s 757 mmHg 95%
    08:00 +8°C° 0 mm 3 m/s 757 mmHg 95%
    09:00 +7°C° 0 mm 4 m/s 756 mmHg 95%
    10:00 +8°C° 0 mm 4 m/s 756 mmHg 92%
    11:00 +8°C° 0 mm 5 m/s 756 mmHg 90%
    12:00 +9°C° 0 mm 5 m/s 756 mmHg 87%
    13:00 +9°C° 0 mm 5 m/s 755 mmHg 87%
    14:00 +9°C° 0 mm 5 m/s 754 mmHg 87%
    15:00 +9°C° 0 mm 6 m/s 754 mmHg 86%
    16:00 +8°C° 0 mm 6 m/s 753 mmHg 87%
    17:00 +8°C° 0 mm 6 m/s 753 mmHg 89%
    18:00 +7°C° 0 mm 6 m/s 752 mmHg 90%
    19:00 +7°C° 0 mm 6 m/s 752 mmHg 89%
    20:00 +7°C° 0 mm 6 m/s 752 mmHg 89%
    21:00 +7°C° 0 mm 6 m/s 752 mmHg 88%
    22:00 +7°C° 0.1 mm 6 m/s 752 mmHg 88%
    23:00 +7°C° 0.1 mm 6 m/s 752 mmHg 88%

    Poimâine, 12 Decembrie, Miercuri

    Timp Temperatura Precipitaţii Vânt Presiune Umiditate
    00:00 +7°C° 0.1 mm 6 m/s 752 mmHg 89%
    01:00 +7°C° 0.2 mm 6 m/s 752 mmHg 89%
    02:00 +7°C° 0.2 mm 6 m/s 752 mmHg 90%
    03:00 +7°C° 0.2 mm 5 m/s 752 mmHg 91%
    04:00 +6°C° 0.1 mm 5 m/s 752 mmHg 91%
    05:00 +6°C° 0.1 mm 5 m/s 752 mmHg 92%
    06:00 +6°C° 0.1 mm 5 m/s 752 mmHg 92%
    07:00 +6°C° 0.1 mm 5 m/s 752 mmHg 92%
    08:00 +6°C° 0.1 mm 5 m/s 752 mmHg 91%
    09:00 +6°C° 0.1 mm 5 m/s 753 mmHg 91%
    10:00 +6°C° 0.2 mm 5 m/s 752 mmHg 89%
    11:00 +5°C° 0.2 mm 6 m/s 752 mmHg 88%
    12:00 +5°C° 0.2 mm 6 m/s 752 mmHg 87%
    13:00 +5°C° 0.1 mm 7 m/s 752 mmHg 86%
    14:00 +5°C° 0.1 mm 7 m/s 751 mmHg 85%
    15:00 +5°C° 0.1 mm 7 m/s 751 mmHg 84%
    16:00 +5°C° 0.2 mm 7 m/s 750 mmHg 84%
    17:00 +4°C° 0.2 mm 7 m/s 750 mmHg 84%
    18:00 +4°C° 0.2 mm 8 m/s 750 mmHg 84%
    19:00 +4°C° 0.3 mm 8 m/s 749 mmHg 85%
    20:00 +4°C° 0.3 mm 8 m/s 749 mmHg 85%
    21:00 +4°C° 0.3 mm 8 m/s 748 mmHg 86%
    22:00 +4°C° 0.5 mm 8 m/s 748 mmHg 86%
    23:00 +4°C° 0.5 mm 8 m/s 747 mmHg 87%

    13 Decembrie, Joi

    Timp Temperatura Precipitaţii Vânt Presiune Umiditate
    00:00 +4°C° 0.5 mm 8 m/s 747 mmHg 88%
    01:00 +4°C° 0.4 mm 8 m/s 746 mmHg 88%
    02:00 +2°C° 0.4 mm 8 m/s 745 mmHg 88%
    03:00 +2°C° 0.4 mm 8 m/s 744 mmHg 88%
    04:00 +2°C° 0.6 mm 8 m/s 744 mmHg 88%
    05:00 +2°C° 0.6 mm 9 m/s 743 mmHg 87%
    06:00 +2°C° 0.6 mm 9 m/s 742 mmHg 87%
    07:00 +2°C° 0.6 mm 9 m/s 742 mmHg 86%
    08:00 +1°C° 0.6 mm 9 m/s 742 mmHg 86%
    09:00 +1°C° 0.6 mm 10 m/s 742 mmHg 86%
    10:00 +1°C° 0.8 mm 10 m/s 742 mmHg 86%
    11:00 +1°C° 0.8 mm 9 m/s 742 mmHg 86%
    12:00 +1°C° 0.8 mm 9 m/s 742 mmHg 86%
    13:00 +1°C° 0.3 mm 9 m/s 742 mmHg 86%
    14:00 +1°C° 0.3 mm 9 m/s 743 mmHg 86%
    15:00 +1°C° 0.3 mm 9 m/s 743 mmHg 86%
    16:00 +1°C° 0.2 mm 8 m/s 744 mmHg 87%
    17:00 +1°C° 0.2 mm 8 m/s 744 mmHg 87%
    18:00 +1°C° 0.2 mm 8 m/s 745 mmHg 87%
    19:00 +2°C° 0.1 mm 7 m/s 746 mmHg 88%
    20:00 0°C° 0.1 mm 7 m/s 746 mmHg 88%
    21:00 0°C° 0.1 mm 7 m/s 747 mmHg 88%
    22:00 +1°C° 0 mm 6 m/s 748 mmHg 88%
    23:00 +1°C° 0 mm 6 m/s 748 mmHg 88%

    14 Decembrie, Vineri

    Timp Temperatura Precipitaţii Vânt Presiune Umiditate
    00:00 +1°C° 0 mm 5 m/s 749 mmHg 89%
    01:00 +1°C° 0 mm 5 m/s 749 mmHg 89%
    02:00 +1°C° 0 mm 4 m/s 749 mmHg 89%
    03:00 +1°C° 0 mm 4 m/s 750 mmHg 89%
    04:00 +1°C° 0 mm 4 m/s 750 mmHg 89%
    05:00 0°C° 0 mm 4 m/s 750 mmHg 89%
    06:00 +1°C° 0 mm 3 m/s 751 mmHg 89%
    07:00 +2°C° 0 mm 3 m/s 751 mmHg 90%
    08:00 +2°C° 0 mm 3 m/s 751 mmHg 90%
    09:00 +1°C° 0 mm 4 m/s 752 mmHg 90%
    10:00 +3°C° 0 mm 4 m/s 752 mmHg 90%
    11:00 +3°C° 0 mm 4 m/s 752 mmHg 89%
    12:00 +4°C° 0 mm 4 m/s 752 mmHg 89%
    13:00 +4°C° 0.1 mm 4 m/s 752 mmHg 90%
    14:00 +5°C° 0.1 mm 5 m/s 751 mmHg 91%
    15:00 +5°C° 0.1 mm 5 m/s 751 mmHg 92%
    16:00 +5°C° 0 mm 5 m/s 751 mmHg 91%
    17:00 +6°C° 0 mm 5 m/s 751 mmHg 90%
    18:00 +5°C° 0 mm 6 m/s 751 mmHg 90%
    19:00 +5°C° 0 mm 6 m/s 751 mmHg 91%
    20:00 +6°C° 0 mm 7 m/s 751 mmHg 91%
    21:00 +6°C° 0 mm 8 m/s 750 mmHg 92%
    22:00 +7°C° 0.6 mm 8 m/s 750 mmHg 92%
    23:00 +7°C° 0.6 mm 9 m/s 749 mmHg 92%

    15 Decembrie, Sâmbătă

    Timp Temperatura Precipitaţii Vânt Presiune Umiditate
    00:00 +8°C° 0.6 mm 10 m/s 748 mmHg 93%
    01:00 +8°C° 0.9 mm 10 m/s 748 mmHg 93%
    02:00 +9°C° 0.9 mm 10 m/s 747 mmHg 93%
    03:00 +11°C° 0.9 mm 9 m/s 746 mmHg 93%
    04:00 +11°C° 0.2 mm 10 m/s 746 mmHg 92%
    05:00 +12°C° 0.2 mm 10 m/s 745 mmHg 91%
    06:00 +12°C° 0.2 mm 10 m/s 745 mmHg 91%
    07:00 +12°C° 0.4 mm 10 m/s 744 mmHg 90%
    08:00 +12°C° 0.4 mm 11 m/s 744 mmHg 90%
    09:00 +12°C° 0.4 mm 11 m/s 744 mmHg 90%
    10:00 +12°C° 1.5 mm 11 m/s 744 mmHg 90%
    11:00 +12°C° 1.5 mm 12 m/s 743 mmHg 89%
    12:00 +12°C° 1.5 mm 12 m/s 743 mmHg 89%
    13:00 +12°C° 0.5 mm 11 m/s 743 mmHg 86%
    14:00 +11°C° 0.5 mm 11 m/s 744 mmHg 83%
    15:00 +9°C° 0.5 mm 10 m/s 745 mmHg 80%
    16:00 +8°C° 0 mm 9 m/s 746 mmHg 81%
    17:00 +8°C° 0 mm 7 m/s 747 mmHg 82%
    18:00 +7°C° 0 mm 6 m/s 748 mmHg 83%
    19:00 +6°C° 0.2 mm 7 m/s 749 mmHg 84%
    20:00 +6°C° 0.2 mm 7 m/s 749 mmHg 84%
    21:00 +6°C° 0.2 mm 7 m/s 750 mmHg 84%
    22:00 +5°C° 0.4 mm 7 m/s 750 mmHg 83%
    23:00 +5°C° 0.4 mm 7 m/s 751 mmHg 82%
    Arată mai mult